Regional Weather Roundup
Issued by NWS San Diego, CA

Home | Current Version | Previous Version | Text Only | Print | Product List | Glossary On
Versions: 1 2 3 4 5 6 7 8 9 10 11 12 13 14 15 16 17 18 19 20 21 22 23 24 25 26 27 28 29 30 31 32 33 34 35 36 37 38 39 40 41 42 43 44 45 46 47 48 49 50
000
ASUS46 KSGX 011610
RWRSGX

SAN DIEGO HOURLY WEATHER ROUNDUP
NATIONAL WEATHER SERVICE SAN DIEGO CA
900 AM PDT FRI AUG 01 2014

NOTE: "FAIR" INDICATES FEW OR NO CLOUDS BELOW 12,000 FEET WITH NO
SIGNIFICANT WEATHER AND/OR OBSTRUCTIONS TO VISIBILITY.

CAZ042-043-060-061-PZZ750-775-011700-

GREATER SAN DIEGO AREA

CITY           SKY/WX    TMP DP  RH WIND       PRES   REMARKS
LINDBERGH FLD  PTSUNNY   71  63  75 W5        29.94R
POINT LOMA       N/A     72  63  74 W7          N/A
NATIONAL CITY    N/A     72  66  81 W2        29.93R
CHULA VISTA      N/A     73  67  82 W2        29.86S
IMPERIAL BEACH CLOUDY    71  65  81 W8        29.93S
BROWN FIELD    PTSUNNY   72  64  76 VRB6      29.93S
MIRAMAR MCAS   PTSUNNY   72  63  73 N6        29.93S
MONTGOMERY FLD MOSUNNY   73  63  70 N3        29.93S

$$

NORTH SAN DIEGO COUNTY

CITY           SKY/WX    TMP DP  RH WIND       PRES   REMARKS
CAMP PENDLETON MOSUNNY   72  63  73 S5        29.92S
OCEANSIDE AP   MOSUNNY   73  64  73 CALM      29.91F
VISTA            N/A     70  65  84 CALM      29.90S
CARLSBAD       CLOUDY    71  64  78 CALM      29.92S
DEL MAR          N/A     69  66  89 CALM      29.95R
LA JOLLA SCRIP   N/A     69  67  93 W2        29.90R
FALLBROOK        N/A     71  69  96 CALM      29.92F
ESCONDIDO        N/A     73  67  80 W2        29.93S
SAN MARCOS       N/A     72  67  83 N1        29.90R
POWAY            N/A     73  66  78 CALM      29.93R
R. PENASQUITOS   N/A     70  66  86 CALM      29.92R

$$

EAST SAN DIEGO COUNTY

CITY           SKY/WX    TMP DP  RH WIND       PRES   REMARKS
RAMONA         SUNNY     76  62  62 W5        29.95R
SANTEE LAKES     N/A     71  66  85 SW1       29.92S
GILLESPIE FLD  FAIR      72  64  78 SW5       29.95R
LA MESA          N/A     70  66  88 W3        29.86S
JAMUL            N/A     71  66  82 W2        29.90R
DESCANSO N       N/A     88  47  23 E3        29.76R
MT. LAGUNA OBS   N/A     77  39  26 NE3       29.80S
CAMPO            N/A     92  48  22 MISG      29.96F

$$

ORANGE COUNTY AND THE LOS ANGELES BASIN

CITY           SKY/WX    TMP DP  RH WIND       PRES   REMARKS
JOHN WAYNE AP  MOSUNNY   76  62  62 S3        29.92S
LAGUNA BEACH     N/A     71  66  83 SE3       29.88F
LAKE FOREST FR   N/A     69  61  76 CALM      29.83S
SANTA ANA        N/A     73  67  82 CALM      29.88S
HUNTINGTON BCH   N/A     76  67  74 CALM      29.94S
LOS ALAMITOS   MOSUNNY   74  64  71 CALM      29.92F
FULLERTON      SUNNY     75  63  66 SW3       29.91F
LONG BEACH     MOSUNNY   74  64  71 CALM      29.93S
L.A. AP        MOSUNNY   72  63  73 SE3       29.94R
L.A. DOWNTOWN  SUNNY     75  63  66 VRB3      29.93R

$$

THE INLAND EMPIRE

CITY           SKY/WX    TMP DP  RH WIND       PRES   REMARKS
CORONA         SUNNY     75  63  66 CALM      29.94S
CHINO          SUNNY     75  64  68 CALM      29.95S
ONTARIO        MOSUNNY   77  61  57 CALM      29.94S
SAN BERNARDINO MOSUNNY   77  57  50 CALM      29.94F
RIVERSIDE AP   SUNNY     76  60  57 CALM      29.93F
RIV CYN CREST    N/A     74  69  84 W1        29.92S
MORENO VALLEY    N/A     84  66  55 SW1         N/A
MARCH ARB      SUNNY     80  61  51 CALM      29.95F
HORSETHIEF CYN   N/A     79  58  49 NE1       29.91S
PERRIS           N/A     79  64  60 S1        29.93F
MENIFEE          N/A     78  65  63 SE1       30.00F
HEMET EAST       N/A     78  58  49 CALM      29.87S
FRENCH VALLEY  FAIR      77  63  61 S3        29.95F
TEMECULA         N/A     71  66  82 CALM      29.92S

$$

SAN BERNARDINO AND RIVERSIDE COUNTY MOUNTAINS

CITY           SKY/WX    TMP DP  RH WIND       PRES   REMARKS
BIG BEAR AP    SUNNY     72  37  28 CALM      30.32S
BIG BEAR SHEA    N/A     73  37  26 SW2       29.87F
ANGELUS OAKS     N/A     76  43  29 CALM      29.75F
PINE COVE        N/A     78  44  30 S2        29.85R

$$

SOUTHERN DESERT INCLUDING THE COACHELLA VALLEY

CITY           SKY/WX    TMP DP  RH WIND       PRES   REMARKS
PALM SPRINGS   MOSUNNY   92  69  47 SE6       29.92S HX  97
THOUSAND PALMS   N/A     91  71  52 S2        29.87R HX  97
THERMAL        SUNNY     93  74  53 W5        29.86R HX 103
BLYTHE           N/A    N/A N/A N/A MISG      29.90R
IMPERIAL AP    MOSUNNY   96  72  45 S12       29.85R HX 104
EL CENTRO NAS  MOSUNNY   94  76  55 S8        29.85R HX 106
YUMA AZ        PTSUNNY   99  59  26 SE16      29.88R HX  99
MEXICALI       MOSUNNY   93  70  46 SE17      29.87  HX  99

$$

UPPER DESERT

CITY           SKY/WX    TMP DP  RH WIND       PRES   REMARKS
VICTORVILLE AP SUNNY     86  45  23 S7        30.02S
HESPERIA         N/A     85  48  26 CALM      29.95S
APPLE VALLEY     N/A     83  50  31 CALM      30.07F
GRAY BUTTE AP  NOT AVBL
PALMDALE       SUNNY     90  44  20 VRB3      29.99S
LANCASTER      SUNNY     91  44  19 CALM      29.98R
EDWARDS AFB    SUNNY     87  46  23 VRB6      29.96R
DAGGETT        SUNNY     91  44  19 W7        29.94F
29 PALMS N     MOSUNNY   90  48  23 VRB3      30.04S
NEEDLES        SUNNY     98  56  24 S9        29.92R HX  96

$$

REGIONAL REPORTS

CITY           SKY/WX    TMP DP  RH WIND       PRES   REMARKS
SANTA BARBARA  MOSUNNY   67  61  81 S3        29.93R
SANDBERG       SUNNY     85  36  17 N13G20    30.15R
MT. WILSON       N/A    N/A N/A N/A MISG        N/A
LAS VEGAS NV   MOSUNNY   92  52  25 VRB5      29.94R
PHOENIX AZ     CLOUDY    84  68  58 SE8       29.98F
TIJUANA        PTSUNNY   70  63  78 NW6       29.95S
ENSENADA NW      N/A     69  32  25 W1        29.91R

$$

OFFSHORE ISLANDS

CITY           SKY/WX    TMP DP  RH WIND       PRES   REMARKS
CATALINA ARPT  MOSUNNY   65  62  90 SW5       29.96S
SAN CLEMENTE I CLOUDY    67  61  81 SW9       29.96R
SAN NICOLAS IS CLOUDY   N/A N/A N/A W13       29.94R

$$

MARINE AND OFFSHORE BUOY REPORTS

STATION/POSITION SKY/WX   TEMP    WIND        PRES    SWELL
                          AIR SEA DIR/SP/G            HT/PER/DIR
                          (F)     (DEG/KT/KT) (MB)    (FT/S/D)
TANNER BANKS               64 68  310/ 12/ 17 1014.1R
S CLEMENTE BASIN           67 70  290/ 10/ 12 1013.2F   3/290/ 7
SAN NICOLAS IS.               65                N/A     2/220/15
SO. S. ROSA ISLA           62 65  320/ 10/ 12 1013.7R   3/ 8
W. S. BARBARA CH           59 60  320/ 14/ 16 1013.2R   2/240/15
M. S. BARBARA CH           63 63  160/  6/  8 1013.4R
S. MONICA BASIN            66 71  100/  4/  8 1013.2R   3/260/ 6
S PEDRO CHANNEL               69                N/A     2/180/13
DANA POINT                    69                N/A     2/200/15
CMP PENDLETON NS              71                N/A     2/220/17
OCEANSIDE OFFSHR              72                N/A     2/210/17
TORREY PINES OTR              73                N/A     2/230/13
LA JOLLA 1                 70 71  240/  2/  3 1013.5R
MISSION BAY BUOY              73                N/A     2/200/17
SAN DIEGO BAY                 75              1013.8R
POINT LOMA SOUTH              72                N/A     2/200/15

$$




USA.gov is the U.S. government's official web portal to all federal, state and local government web resources and services.